| time (UTC) | temp F | wind direction | speed MPH | gust MPH | rain 1hr in | rain 24hr in | rain mn in | humidity % | barometer mb |
| 20260504190524 | 80 | 187 | 1.0 | 8.0 | 0.00 | 0.00 | 0.00 | 33 | 1014.8 |
| 20260504185546 | 80 | 191 | 2.0 | 8.0 | 0.00 | 0.00 | 0.00 | 36 | 1015.0 |
| 20260504184539 | 79 | 277 | 0.0 | 0.0 | 0.00 | 0.00 | 0.00 | 35 | 1015.2 |
| 20260504183529 | 79 | 213 | 2.0 | 8.0 | 0.00 | 0.00 | 0.00 | 36 | 1015.3 |
| 20260504182536 | 79 | 177 | 0.0 | 2.0 | 0.00 | 0.00 | 0.00 | 40 | 1015.4 |
| 20260504180320 | 78 | 281 | 0.0 | 7.0 | 0.00 | 0.00 | 0.00 | 39 | 1015.7 |
| 20260504175344 | 78 | 291 | 1.0 | 3.0 | 0.00 | 0.00 | 0.00 | 36 | 1015.8 |
| 20260504174322 | 78 | 296 | 1.0 | 0.0 | 0.00 | 0.00 | 0.00 | 35 | 1015.9 |
| 20260504173253 | 78 | 181 | 1.0 | 9.0 | 0.00 | 0.00 | 0.00 | 40 | 1016.1 |
| 20260504171158 | 77 | 212 | 2.0 | 12.0 | 0.00 | 0.00 | 0.00 | 40 | 1016.3 |
| 20260504170144 | 77 | 192 | 3.0 | 11.0 | 0.00 | 0.00 | 0.00 | 37 | 1016.4 |
| 20260504150745 | 72 | 302 | 0.0 | 10.0 | 0.00 | 0.00 | 0.00 | 47 | 1017.3 |
| 20260504140547 | 68 | 322 | 0.0 | 0.0 | 0.00 | 0.00 | 0.00 | 50 | 1017.6 |
| 20260504110709 | 46 | 324 | 0.0 | 0.0 | 0.00 | 0.00 | 0.00 | 90 | 1017.4 |
| 20260504081106 | 50 | 324 | 0.0 | 0.0 | 0.00 | 0.00 | 0.00 | 87 | 1017.0 |
| 20260504070108 | 50 | 178 | 0.0 | 0.0 | 0.00 | 0.00 | 0.00 | 85 | 1016.8 |
| 20260504045813 | 53 | 227 | 0.0 | 0.0 | 0.00 | 0.01 | 0.00 | 77 | 1017.3 |
| 20260504044836 | 54 | 227 | 0.0 | 0.0 | 0.00 | 0.01 | 0.00 | 77 | 1017.3 |
| 20260504043827 | 54 | 227 | 0.0 | 0.0 | 0.00 | 0.01 | 0.00 | 75 | 1017.2 |
| 20260504042846 | 54 | 227 | 0.0 | 0.0 | 0.00 | 0.01 | 0.00 | 74 | 1017.3 |
| 20260504041847 | 54 | 227 | 0.0 | 0.0 | 0.00 | 0.01 | 0.00 | 75 | 1017.1 |
| 20260504040910 | 54 | 227 | 0.0 | 0.0 | 0.00 | 0.01 | 0.00 | 75 | 1017.1 |
| 20260504034744 | 55 | 227 | 0.0 | 0.0 | 0.00 | 0.01 | 0.01 | 74 | 1017.1 |
| 20260504033751 | 55 | 227 | 0.0 | 0.0 | 0.00 | 0.01 | 0.01 | 74 | 1017.1 |
| 20260504032813 | 55 | 227 | 0.0 | 0.0 | 0.00 | 0.01 | 0.01 | 73 | 1017.1 |
| 20260504031741 | 55 | 227 | 0.0 | 0.0 | 0.00 | 0.01 | 0.01 | 73 | 1017.1 |
| 20260504030805 | 56 | 227 | 0.0 | 0.0 | 0.00 | 0.01 | 0.01 | 71 | 1017.0 |
| 20260504025759 | 56 | 227 | 0.0 | 0.0 | 0.00 | 0.01 | 0.01 | 71 | 1017.0 |
| 20260504024815 | 56 | 227 | 0.0 | 0.0 | 0.00 | 0.01 | 0.01 | 69 | 1017.1 |
| 20260504023816 | 56 | 227 | 0.0 | 0.0 | 0.00 | 0.01 | 0.01 | 67 | 1017.0 |
| 20260504022829 | 57 | 227 | 0.0 | 0.0 | 0.00 | 0.01 | 0.01 | 69 | 1017.0 |
| 20260504021854 | 57 | 227 | 0.0 | 0.0 | 0.00 | 0.01 | 0.01 | 66 | 1016.9 |
| 20260504020837 | 57 | 227 | 0.0 | 0.0 | 0.00 | 0.01 | 0.01 | 65 | 1016.8 |
| 20260504015858 | 58 | 227 | 0.0 | 0.0 | 0.00 | 0.01 | 0.01 | 67 | 1016.7 |
| 20260504012608 | 59 | 227 | 0.0 | 0.0 | 0.00 | 0.05 | 0.01 | 62 | 1016.3 |
| 20260504011625 | 59 | 227 | 0.0 | 0.0 | 0.00 | 0.05 | 0.01 | 65 | 1016.1 |
| 20260504010601 | 60 | 227 | 0.0 | 0.0 | 0.00 | 0.05 | 0.01 | 60 | 1016.0 |
| 20260504005550 | 60 | 227 | 0.0 | 0.0 | 0.00 | 0.05 | 0.01 | 61 | 1015.8 |
| 20260504004536 | 61 | 227 | 0.0 | 0.0 | 0.00 | 0.05 | 0.01 | 57 | 1015.8 |
| 20260504003502 | 62 | 227 | 0.0 | 0.0 | 0.00 | 0.05 | 0.01 | 58 | 1015.7 |
| 20260504001401 | 64 | 227 | 0.0 | 0.0 | 0.00 | 0.05 | 0.01 | 54 | 1015.6 |
| 20260504000328 | 65 | 227 | 0.0 | 0.0 | 0.00 | 0.05 | 0.01 | 52 | 1015.5 |
| 20260503235301 | 66 | 227 | 0.0 | 0.0 | 0.00 | 0.05 | 0.01 | 52 | 1015.5 |
| 20260503232020 | 68 | 262 | 0.0 | 4.0 | 0.00 | 0.05 | 0.01 | 44 | 1015.5 |
| 20260503225856 | 69 | 275 | 0.0 | 5.0 | 0.00 | 0.05 | 0.01 | 43 | 1015.6 |
| 20260503224836 | 69 | 276 | 0.0 | 2.0 | 0.00 | 0.05 | 0.01 | 46 | 1015.6 |
| 20260503223901 | 70 | 305 | 0.0 | 3.0 | 0.00 | 0.05 | 0.01 | 50 | 1015.6 |
| 20260503222857 | 70 | 355 | 0.0 | 4.0 | 0.00 | 0.05 | 0.01 | 43 | 1015.7 |
| 20260503221915 | 71 | 326 | 0.0 | 1.0 | 0.00 | 0.05 | 0.01 | 47 | 1015.7 |
| 20260503220853 | 71 | 308 | 0.0 | 0.0 | 0.00 | 0.05 | 0.01 | 42 | 1015.7 |
| 20260503215855 | 71 | 260 | 1.0 | 9.0 | 0.00 | 0.05 | 0.01 | 39 | 1015.7 |
| 20260503214911 | 72 | 325 | 1.0 | 8.0 | 0.00 | 0.05 | 0.01 | 44 | 1015.7 |
| 20260503213921 | 72 | 288 | 0.0 | 2.0 | 0.00 | 0.05 | 0.01 | 36 | 1015.6 |
| 20260503211755 | 74 | 176 | 0.0 | 5.0 | 0.00 | 0.05 | 0.01 | 38 | 1015.7 |
| 20260503210743 | 74 | 170 | 1.0 | 12.0 | 0.00 | 0.05 | 0.01 | 38 | 1015.7 |
| 20260503205752 | 74 | 238 | 0.0 | 9.0 | 0.00 | 0.05 | 0.01 | 40 | 1015.8 |
| 20260503204742 | 74 | 270 | 0.0 | 5.0 | 0.00 | 0.05 | 0.01 | 41 | 1015.8 |
| 20260503203715 | 74 | 323 | 0.0 | 7.0 | 0.00 | 0.05 | 0.01 | 42 | 1015.9 |
| 20260503202708 | 73 | 322 | 0.0 | 5.0 | 0.00 | 0.05 | 0.01 | 41 | 1016.0 |
| 20260503200542 | 73 | 246 | 1.0 | 0.0 | 0.00 | 0.06 | 0.01 | 42 | 1016.4 |
| 20260503195547 | 73 | 347 | 1.0 | 9.0 | 0.00 | 0.07 | 0.01 | 44 | 1016.6 |
| 20260503194556 | 73 | 315 | 1.0 | 8.0 | 0.00 | 0.07 | 0.01 | 44 | 1016.7 |
| 20260503193552 | 73 | 325 | 1.0 | 10.0 | 0.00 | 0.07 | 0.01 | 43 | 1016.8 |
| 20260503192519 | 72 | 311 | 1.0 | 8.0 | 0.00 | 0.07 | 0.01 | 42 | 1017.1 |
| 20260503191512 | 72 | 328 | 2.0 | 8.0 | 0.00 | 0.07 | 0.01 | 41 | 1017.3 |